| time (UTC) | temp F | wind direction | speed MPH | gust MPH | rain 1hr in | rain 24hr in | rain mn in | humidity % | barometer mb |
| 20260510115840 | 76 | 183 | 1.0 | 3.0 | 0.00 | 0.00 | 0.00 | 90 | 1017.0 |
| 20260510115338 | 75 | 212 | 0.0 | 5.0 | 0.00 | 0.00 | 0.00 | 90 | 1016.9 |
| 20260510114837 | 75 | 146 | 1.0 | 5.0 | 0.00 | 0.00 | 0.00 | 91 | 1016.8 |
| 20260510114337 | 75 | 140 | 1.0 | 3.0 | 0.00 | 0.00 | 0.00 | 91 | 1016.8 |
| 20260510113838 | 75 | 119 | 1.0 | 3.0 | 0.00 | 0.00 | 0.00 | 91 | 1016.9 |
| 20260510113340 | 75 | 199 | 0.0 | 3.0 | 0.00 | 0.00 | 0.00 | 92 | 1016.9 |
| 20260510112835 | 74 | 161 | 1.0 | 2.0 | 0.00 | 0.00 | 0.00 | 92 | 1016.7 |
| 20260510112338 | 74 | 178 | 0.0 | 1.0 | 0.00 | 0.00 | 0.00 | 91 | 1016.6 |
| 20260510111840 | 74 | 182 | 0.0 | 0.0 | 0.00 | 0.00 | 0.00 | 91 | 1016.6 |
| 20260510111323 | 74 | 182 | 0.0 | 0.0 | 0.00 | 0.00 | 0.00 | 91 | 1016.5 |
| 20260510110824 | 74 | 182 | 0.0 | 0.0 | 0.00 | 0.00 | 0.00 | 91 | 1016.4 |
| 20260510110328 | 74 | 183 | 0.0 | 0.0 | 0.00 | 0.00 | 0.00 | 90 | 1016.4 |
| 20260510105829 | 74 | 183 | 0.0 | 0.0 | 0.00 | 0.00 | 0.00 | 90 | 1016.3 |
| 20260510105330 | 74 | 183 | 0.0 | 0.0 | 0.00 | 0.00 | 0.00 | 91 | 1016.3 |
| 20260510104831 | 74 | 183 | 0.0 | 0.0 | 0.00 | 0.00 | 0.00 | 91 | 1016.2 |
| 20260510104334 | 74 | 183 | 0.0 | 0.0 | 0.00 | 0.00 | 0.00 | 91 | 1016.0 |
| 20260510103843 | 74 | 183 | 0.0 | 0.0 | 0.00 | 0.00 | 0.00 | 91 | 1015.9 |
| 20260510103345 | 74 | 183 | 0.0 | 0.0 | 0.00 | 0.00 | 0.00 | 91 | 1015.9 |
| 20260510102848 | 74 | 183 | 0.0 | 0.0 | 0.00 | 0.00 | 0.00 | 91 | 1015.8 |
| 20260510102345 | 74 | 183 | 0.0 | 1.0 | 0.00 | 0.00 | 0.00 | 91 | 1015.7 |
| 20260510101848 | 74 | 182 | 0.0 | 1.0 | 0.00 | 0.00 | 0.00 | 91 | 1015.6 |
| 20260510101330 | 74 | 148 | 0.0 | 1.0 | 0.00 | 0.00 | 0.00 | 91 | 1015.5 |
| 20260510100859 | 75 | 148 | 0.0 | 3.0 | 0.00 | 0.00 | 0.00 | 91 | 1015.5 |
| 20260510100338 | 74 | 134 | 0.0 | 3.0 | 0.00 | 0.00 | 0.00 | 92 | 1015.4 |
| 20260510095907 | 74 | 141 | 1.0 | 3.0 | 0.00 | 0.00 | 0.00 | 92 | 1015.3 |
| 20260510095344 | 74 | 153 | 0.0 | 3.0 | 0.00 | 0.00 | 0.00 | 92 | 1015.4 |
| 20260510094842 | 74 | 149 | 0.0 | 3.0 | 0.00 | 0.00 | 0.00 | 92 | 1015.4 |
| 20260510094342 | 74 | 144 | 1.0 | 3.0 | 0.00 | 0.00 | 0.00 | 92 | 1015.3 |
| 20260510093823 | 74 | 136 | 0.0 | 2.0 | 0.00 | 0.00 | 0.00 | 92 | 1015.2 |
| 20260510093332 | 74 | 147 | 0.0 | 2.0 | 0.00 | 0.00 | 0.00 | 92 | 1015.3 |
| 20260510092827 | 74 | 128 | 0.0 | 2.0 | 0.00 | 0.00 | 0.00 | 92 | 1015.3 |
| 20260510092336 | 74 | 138 | 0.0 | 2.0 | 0.00 | 0.00 | 0.00 | 92 | 1015.3 |
| 20260510091836 | 74 | 142 | 0.0 | 1.0 | 0.00 | 0.00 | 0.00 | 92 | 1015.3 |
| 20260510091340 | 74 | 165 | 0.0 | 1.0 | 0.00 | 0.00 | 0.00 | 93 | 1015.3 |
| 20260510090842 | 74 | 172 | 0.0 | 1.0 | 0.00 | 0.00 | 0.00 | 93 | 1015.3 |
| 20260510090325 | 74 | 123 | 0.0 | 3.0 | 0.00 | 0.00 | 0.00 | 93 | 1015.2 |
| 20260510085914 | 74 | 146 | 1.0 | 5.0 | 0.00 | 0.00 | 0.00 | 93 | 1015.1 |
| 20260510085350 | 74 | 138 | 1.0 | 5.0 | 0.00 | 0.00 | 0.00 | 93 | 1015.1 |
| 20260510084849 | 73 | 111 | 2.0 | 4.0 | 0.00 | 0.00 | 0.00 | 93 | 1015.0 |
| 20260510084350 | 73 | 106 | 0.0 | 1.0 | 0.00 | 0.00 | 0.00 | 92 | 1015.0 |
| 20260510083854 | 73 | 49 | 0.0 | 0.0 | 0.00 | 0.00 | 0.00 | 92 | 1015.0 |
| 20260510083334 | 73 | 49 | 0.0 | 0.0 | 0.00 | 0.00 | 0.00 | 92 | 1015.1 |
| 20260510082834 | 73 | 49 | 0.0 | 0.0 | 0.00 | 0.00 | 0.00 | 92 | 1015.1 |
| 20260510082334 | 73 | 49 | 0.0 | 0.0 | 0.00 | 0.00 | 0.00 | 92 | 1015.2 |
| 20260510081837 | 73 | 49 | 0.0 | 0.0 | 0.00 | 0.00 | 0.00 | 92 | 1015.3 |
| 20260510081408 | 73 | 49 | 0.0 | 0.0 | 0.00 | 0.00 | 0.00 | 92 | 1015.2 |
| 20260510080850 | 73 | 49 | 0.0 | 0.0 | 0.00 | 0.00 | 0.00 | 92 | 1015.3 |
| 20260510080331 | 73 | 49 | 0.0 | 0.0 | 0.00 | 0.00 | 0.00 | 92 | 1015.2 |
| 20260510075855 | 73 | 49 | 0.0 | 0.0 | 0.00 | 0.00 | 0.00 | 92 | 1015.1 |
| 20260510075404 | 73 | 49 | 0.0 | 0.0 | 0.00 | 0.00 | 0.00 | 92 | 1015.2 |
| 20260510074826 | 73 | 49 | 0.0 | 0.0 | 0.00 | 0.00 | 0.00 | 92 | 1015.1 |
| 20260510074323 | 73 | 49 | 0.0 | 0.0 | 0.00 | 0.00 | 0.00 | 91 | 1015.2 |
| 20260510073824 | 73 | 49 | 0.0 | 0.0 | 0.00 | 0.00 | 0.00 | 91 | 1015.3 |
| 20260510073325 | 73 | 49 | 0.0 | 0.0 | 0.00 | 0.00 | 0.00 | 91 | 1015.5 |
| 20260510072824 | 73 | 49 | 0.0 | 0.0 | 0.00 | 0.00 | 0.00 | 91 | 1015.6 |
| 20260510072355 | 73 | 49 | 0.0 | 0.0 | 0.00 | 0.00 | 0.00 | 91 | 1015.6 |
| 20260510071837 | 73 | 49 | 0.0 | 0.0 | 0.00 | 0.00 | 0.00 | 91 | 1015.7 |
| 20260510071340 | 72 | 49 | 0.0 | 0.0 | 0.00 | 0.00 | 0.00 | 91 | 1015.6 |
| 20260510070843 | 72 | 49 | 0.0 | 0.0 | 0.00 | 0.00 | 0.00 | 91 | 1015.5 |
| 20260510070326 | 73 | 49 | 0.0 | 0.0 | 0.00 | 0.00 | 0.00 | 91 | 1015.6 |
| 20260510065825 | 73 | 49 | 0.0 | 0.0 | 0.00 | 0.00 | 0.00 | 91 | 1015.6 |
| 20260510065352 | 73 | 49 | 0.0 | 0.0 | 0.00 | 0.00 | 0.00 | 91 | 1015.6 |
| 20260510064834 | 73 | 49 | 0.0 | 0.0 | 0.00 | 0.00 | 0.00 | 90 | 1015.7 |
| 20260510064343 | 73 | 49 | 0.0 | 0.0 | 0.00 | 0.00 | 0.00 | 90 | 1015.8 |
| 20260510063844 | 73 | 49 | 0.0 | 0.0 | 0.00 | 0.00 | 0.00 | 90 | 1015.7 |
| 20260510063346 | 73 | 49 | 0.0 | 0.0 | 0.00 | 0.00 | 0.00 | 90 | 1015.9 |
| 20260510062846 | 73 | 49 | 0.0 | 0.0 | 0.00 | 0.00 | 0.00 | 90 | 1016.0 |
| 20260510062327 | 73 | 49 | 0.0 | 0.0 | 0.00 | 0.00 | 0.00 | 90 | 1016.0 |
| 20260510061830 | 73 | 49 | 0.0 | 0.0 | 0.00 | 0.00 | 0.00 | 90 | 1016.0 |
| 20260510061332 | 73 | 49 | 0.0 | 0.0 | 0.00 | 0.00 | 0.00 | 90 | 1015.9 |
| 20260510060832 | 73 | 49 | 0.0 | 0.0 | 0.00 | 0.00 | 0.00 | 90 | 1015.9 |
| 20260510060332 | 73 | 49 | 0.0 | 0.0 | 0.00 | 0.00 | 0.00 | 90 | 1016.0 |
| 20260510055835 | 73 | 49 | 0.0 | 0.0 | 0.00 | 0.00 | 0.00 | 89 | 1016.1 |
| 20260510055335 | 73 | 49 | 0.0 | 0.0 | 0.00 | 0.01 | 0.00 | 89 | 1016.1 |
| 20260510054836 | 73 | 49 | 0.0 | 0.0 | 0.00 | 0.01 | 0.00 | 89 | 1016.1 |
| 20260510054338 | 73 | 49 | 0.0 | 0.0 | 0.00 | 0.01 | 0.00 | 89 | 1016.1 |
| 20260510053840 | 73 | 49 | 0.0 | 0.0 | 0.00 | 0.01 | 0.00 | 89 | 1016.2 |
| 20260510053340 | 73 | 49 | 0.0 | 0.0 | 0.00 | 0.01 | 0.00 | 89 | 1016.3 |
| 20260510052843 | 73 | 49 | 0.0 | 0.0 | 0.00 | 0.01 | 0.00 | 89 | 1016.4 |
| 20260510052323 | 73 | 49 | 0.0 | 0.0 | 0.00 | 0.01 | 0.00 | 89 | 1016.5 |
| 20260510051825 | 73 | 49 | 0.0 | 0.0 | 0.00 | 0.01 | 0.00 | 89 | 1016.6 |
| 20260510051327 | 73 | 49 | 0.0 | 0.0 | 0.00 | 0.01 | 0.00 | 89 | 1016.6 |
| 20260510050830 | 74 | 49 | 0.0 | 0.0 | 0.00 | 0.01 | 0.00 | 89 | 1016.7 |
| 20260510050332 | 74 | 49 | 0.0 | 1.0 | 0.00 | 0.01 | 0.00 | 89 | 1016.7 |
| 20260510045832 | 74 | 49 | 0.0 | 0.0 | 0.00 | 0.01 | 0.00 | 89 | 1016.8 |
| 20260510045334 | 74 | 49 | 0.0 | 0.0 | 0.00 | 0.01 | 0.00 | 89 | 1017.0 |
| 20260510044833 | 74 | 49 | 0.0 | 0.0 | 0.00 | 0.01 | 0.00 | 88 | 1016.9 |
| 20260510044335 | 74 | 49 | 0.0 | 0.0 | 0.00 | 0.01 | 0.00 | 88 | 1016.9 |
| 20260510043842 | 74 | 49 | 0.0 | 0.0 | 0.00 | 0.01 | 0.00 | 88 | 1016.9 |
| 20260510043342 | 74 | 49 | 0.0 | 0.0 | 0.00 | 0.01 | 0.00 | 88 | 1016.9 |
| 20260510042841 | 74 | 49 | 0.0 | 0.0 | 0.00 | 0.01 | 0.00 | 88 | 1016.9 |
| 20260510042339 | 74 | 49 | 0.0 | 0.0 | 0.00 | 0.01 | 0.00 | 88 | 1016.8 |
| 20260510041905 | 74 | 49 | 0.0 | 0.0 | 0.00 | 0.01 | 0.00 | 88 | 1016.8 |
| 20260510041343 | 74 | 49 | 0.0 | 0.0 | 0.00 | 0.01 | 0.00 | 88 | 1016.8 |
| 20260510040824 | 74 | 49 | 0.0 | 0.0 | 0.00 | 0.01 | 0.00 | 87 | 1016.8 |
| 20260510040324 | 75 | 49 | 0.0 | 0.0 | 0.00 | 0.01 | 0.00 | 87 | 1016.8 |
| 20260510035850 | 75 | 49 | 0.0 | 0.0 | 0.00 | 0.01 | 0.00 | 87 | 1016.8 |
| 20260510035347 | 75 | 49 | 0.0 | 0.0 | 0.00 | 0.01 | 0.01 | 87 | 1016.9 |
| 20260510034828 | 75 | 49 | 0.0 | 0.0 | 0.00 | 0.01 | 0.01 | 87 | 1016.8 |
| 20260510034331 | 75 | 49 | 0.0 | 0.0 | 0.00 | 0.01 | 0.01 | 87 | 1016.7 |
| 20260510033902 | 75 | 48 | 0.0 | 0.0 | 0.00 | 0.01 | 0.01 | 87 | 1016.6 |
| 20260510033341 | 75 | 49 | 0.0 | 0.0 | 0.00 | 0.01 | 0.01 | 87 | 1016.6 |
| 20260510032843 | 75 | 49 | 0.0 | 0.0 | 0.00 | 0.01 | 0.01 | 87 | 1016.5 |
| 20260510032343 | 75 | 49 | 0.0 | 0.0 | 0.00 | 0.01 | 0.01 | 87 | 1016.5 |
| 20260510031845 | 75 | 49 | 0.0 | 0.0 | 0.00 | 0.01 | 0.01 | 86 | 1016.5 |
| 20260510031348 | 76 | 49 | 0.0 | 0.0 | 0.00 | 0.01 | 0.01 | 86 | 1016.7 |
| 20260510030851 | 76 | 49 | 0.0 | 0.0 | 0.00 | 0.01 | 0.01 | 85 | 1016.8 |
| 20260510030337 | 76 | 49 | 0.0 | 0.0 | 0.00 | 0.01 | 0.01 | 85 | 1016.8 |
| 20260510025837 | 76 | 49 | 0.0 | 0.0 | 0.00 | 0.01 | 0.01 | 85 | 1016.7 |
| 20260510025338 | 76 | 49 | 0.0 | 0.0 | 0.00 | 0.01 | 0.01 | 85 | 1016.7 |
| 20260510024909 | 76 | 49 | 0.0 | 0.0 | 0.00 | 0.01 | 0.01 | 85 | 1016.7 |
| 20260510024351 | 76 | 49 | 0.0 | 0.0 | 0.00 | 0.01 | 0.01 | 85 | 1016.7 |
| 20260510023901 | 76 | 49 | 0.0 | 0.0 | 0.00 | 0.01 | 0.01 | 85 | 1016.7 |
| 20260510023341 | 76 | 49 | 0.0 | 0.0 | 0.00 | 0.01 | 0.01 | 85 | 1016.7 |
| 20260510022843 | 76 | 49 | 0.0 | 1.0 | 0.00 | 0.01 | 0.01 | 85 | 1016.5 |
| 20260510022345 | 76 | 49 | 0.0 | 1.0 | 0.00 | 0.01 | 0.01 | 85 | 1016.4 |
| 20260510021827 | 76 | 27 | 0.0 | 0.0 | 0.00 | 0.01 | 0.01 | 85 | 1016.4 |
| 20260510021330 | 76 | 27 | 0.0 | 0.0 | 0.00 | 0.01 | 0.01 | 85 | 1016.5 |
| 20260510020828 | 76 | 27 | 0.0 | 1.0 | 0.00 | 0.01 | 0.01 | 85 | 1016.5 |
| 20260510020332 | 76 | 71 | 0.0 | 1.0 | 0.00 | 0.01 | 0.01 | 85 | 1016.5 |
| 20260510015829 | 76 | 71 | 0.0 | 2.0 | 0.00 | 0.01 | 0.01 | 85 | 1016.3 |
| 20260510015328 | 77 | 71 | 0.0 | 3.0 | 0.00 | 0.01 | 0.01 | 85 | 1016.3 |
| 20260510014829 | 77 | 71 | 0.0 | 1.0 | 0.00 | 0.01 | 0.01 | 85 | 1016.3 |
| 20260510014329 | 77 | 69 | 0.0 | 1.0 | 0.00 | 0.01 | 0.01 | 84 | 1016.3 |
| 20260510013858 | 77 | 74 | 0.0 | 2.0 | 0.00 | 0.01 | 0.01 | 84 | 1016.3 |
| 20260510013340 | 77 | 13 | 0.0 | 2.0 | 0.00 | 0.01 | 0.01 | 84 | 1016.3 |
| 20260510012850 | 77 | 13 | 0.0 | 1.0 | 0.00 | 0.01 | 0.01 | 84 | 1016.3 |
| 20260510012350 | 77 | 13 | 0.0 | 1.0 | 0.00 | 0.01 | 0.01 | 84 | 1016.3 |
| 20260510011850 | 77 | 24 | 0.0 | 1.0 | 0.00 | 0.01 | 0.01 | 84 | 1016.3 |
| 20260510011344 | 77 | 24 | 0.0 | 1.0 | 0.00 | 0.01 | 0.01 | 84 | 1016.2 |
| 20260510010843 | 77 | 24 | 0.0 | 1.0 | 0.00 | 0.01 | 0.01 | 84 | 1016.1 |
| 20260510010324 | 77 | 24 | 0.0 | 4.0 | 0.00 | 0.01 | 0.01 | 84 | 1015.9 |
| 20260510005853 | 77 | 46 | 1.0 | 4.0 | 0.00 | 0.01 | 0.01 | 83 | 1015.8 |
| 20260510005352 | 77 | 36 | 0.0 | 4.0 | 0.00 | 0.53 | 0.01 | 83 | 1015.6 |
| 20260510004901 | 77 | 13 | 0.0 | 1.0 | 0.00 | 0.53 | 0.01 | 83 | 1015.6 |
| 20260510004410 | 77 | 82 | 0.0 | 6.0 | 0.00 | 0.53 | 0.01 | 83 | 1015.6 |
| 20260510003850 | 78 | 5 | 1.0 | 6.0 | 0.00 | 0.53 | 0.01 | 83 | 1015.4 |
| 20260510003331 | 78 | 20 | 0.0 | 2.0 | 0.00 | 0.53 | 0.01 | 83 | 1015.3 |
| 20260510002830 | 78 | 25 | 0.0 | 2.0 | 0.00 | 0.53 | 0.01 | 83 | 1015.4 |
| 20260510002333 | 78 | 84 | 0.0 | 2.0 | 0.00 | 0.53 | 0.01 | 82 | 1015.5 |
| 20260510001834 | 78 | 56 | 0.0 | 2.0 | 0.00 | 0.53 | 0.01 | 82 | 1015.3 |
| 20260510001404 | 78 | 82 | 0.0 | 2.0 | 0.00 | 0.53 | 0.01 | 82 | 1015.2 |
| 20260510000844 | 78 | 78 | 0.0 | 2.0 | 0.00 | 0.53 | 0.01 | 82 | 1015.2 |
| 20260510000348 | 78 | 42 | 0.0 | 6.0 | 0.00 | 0.53 | 0.01 | 82 | 1015.3 |
| 20260509235851 | 78 | 86 | 3.0 | 6.0 | 0.00 | 0.53 | 0.01 | 81 | 1015.2 |
| 20260509235332 | 79 | 66 | 1.0 | 4.0 | 0.00 | 0.53 | 0.01 | 81 | 1015.0 |
| 20260509234835 | 79 | 71 | 1.0 | 5.0 | 0.00 | 0.53 | 0.01 | 81 | 1014.9 |
| 20260509234337 | 79 | 76 | 1.0 | 4.0 | 0.00 | 0.53 | 0.01 | 80 | 1014.9 |
| 20260509233839 | 79 | 50 | 0.0 | 5.0 | 0.00 | 0.53 | 0.01 | 80 | 1014.8 |
| 20260509233341 | 79 | 30 | 0.0 | 5.0 | 0.00 | 0.53 | 0.01 | 79 | 1014.6 |
| 20260509232842 | 80 | 44 | 1.0 | 5.0 | 0.00 | 0.53 | 0.01 | 79 | 1014.6 |
| 20260509232340 | 80 | 75 | 1.0 | 3.0 | 0.00 | 0.53 | 0.01 | 78 | 1014.7 |
| 20260509231838 | 81 | 355 | 1.0 | 2.0 | 0.00 | 0.53 | 0.01 | 78 | 1014.6 |
| 20260509231341 | 81 | 83 | 0.0 | 5.0 | 0.00 | 0.53 | 0.01 | 78 | 1014.6 |
| 20260509230843 | 81 | 5 | 1.0 | 5.0 | 0.00 | 0.53 | 0.01 | 78 | 1014.6 |
| 20260509230341 | 81 | 78 | 0.0 | 4.0 | 0.00 | 0.53 | 0.01 | 77 | 1014.4 |
| 20260509225844 | 81 | 28 | 1.0 | 4.0 | 0.00 | 0.53 | 0.01 | 77 | 1014.3 |
| 20260509225325 | 82 | 35 | 1.0 | 4.0 | 0.00 | 0.53 | 0.01 | 76 | 1014.2 |
| 20260509224829 | 82 | 22 | 1.0 | 4.0 | 0.00 | 0.53 | 0.01 | 76 | 1014.1 |
| 20260509224328 | 82 | 347 | 0.0 | 2.0 | 0.00 | 0.53 | 0.01 | 75 | 1014.0 |
| 20260509223830 | 82 | 47 | 0.0 | 3.0 | 0.00 | 0.53 | 0.01 | 75 | 1014.0 |
| 20260509223332 | 83 | 22 | 1.0 | 3.0 | 0.00 | 0.53 | 0.01 | 75 | 1013.9 |
| 20260509222843 | 83 | 24 | 1.0 | 3.0 | 0.00 | 0.53 | 0.01 | 75 | 1013.8 |
| 20260509222344 | 83 | 12 | 0.0 | 9.0 | 0.00 | 0.53 | 0.01 | 74 | 1013.7 |
| 20260509221826 | 84 | 12 | 1.0 | 8.0 | 0.00 | 0.53 | 0.01 | 73 | 1013.5 |
| 20260509221352 | 84 | 29 | 1.0 | 8.0 | 0.00 | 0.53 | 0.01 | 73 | 1013.6 |
| 20260509220833 | 85 | 20 | 1.0 | 5.0 | 0.00 | 0.53 | 0.01 | 72 | 1013.6 |
| 20260509220332 | 85 | 41 | 1.0 | 3.0 | 0.00 | 0.53 | 0.01 | 71 | 1013.5 |
| 20260509215831 | 85 | 310 | 1.0 | 5.0 | 0.00 | 0.53 | 0.01 | 70 | 1013.4 |
| 20260509215332 | 86 | 291 | 1.0 | 4.0 | 0.00 | 0.53 | 0.01 | 70 | 1013.3 |
| 20260509214902 | 86 | 5 | 1.0 | 4.0 | 0.00 | 0.53 | 0.01 | 69 | 1013.4 |
| 20260509214411 | 87 | 319 | 1.0 | 5.0 | 0.00 | 0.53 | 0.01 | 69 | 1013.4 |
| 20260509213851 | 88 | 18 | 1.0 | 5.0 | 0.00 | 0.53 | 0.01 | 67 | 1013.3 |
| 20260509213351 | 88 | 5 | 1.0 | 5.0 | 0.00 | 0.53 | 0.01 | 68 | 1013.2 |
| 20260509212852 | 89 | 337 | 1.0 | 4.0 | 0.00 | 0.53 | 0.01 | 66 | 1013.1 |
| 20260509212330 | 90 | 94 | 0.0 | 4.0 | 0.00 | 0.53 | 0.01 | 65 | 1013.2 |
| 20260509211901 | 90 | 338 | 1.0 | 6.0 | 0.00 | 0.53 | 0.01 | 63 | 1013.1 |
| 20260509211342 | 89 | 51 | 3.0 | 6.0 | 0.00 | 0.53 | 0.01 | 63 | 1013.2 |
| 20260509210824 | 89 | 333 | 1.0 | 5.0 | 0.00 | 0.53 | 0.01 | 63 | 1013.1 |
| 20260509210327 | 89 | 338 | 2.0 | 5.0 | 0.00 | 0.53 | 0.01 | 62 | 1013.0 |
| 20260509205827 | 88 | 21 | 0.0 | 6.0 | 0.00 | 0.53 | 0.01 | 64 | 1013.0 |
| 20260509205327 | 87 | 34 | 1.0 | 11.0 | 0.00 | 0.53 | 0.01 | 67 | 1013.0 |
| 20260509204827 | 86 | 290 | 4.0 | 11.0 | 0.00 | 0.53 | 0.01 | 68 | 1013.0 |
| 20260509204327 | 87 | 35 | 2.0 | 13.0 | 0.00 | 0.53 | 0.01 | 65 | 1013.1 |
| 20260509203827 | 88 | 325 | 3.0 | 13.0 | 0.00 | 0.53 | 0.01 | 61 | 1013.1 |
| 20260509203329 | 90 | 246 | 6.0 | 12.0 | 0.00 | 0.53 | 0.01 | 58 | 1012.9 |
| 20260509202831 | 91 | 226 | 5.0 | 12.0 | 0.00 | 0.53 | 0.01 | 54 | 1012.7 |
| 20260509202333 | 92 | 292 | 3.0 | 7.0 | 0.00 | 0.53 | 0.01 | 51 | 1012.5 |
| 20260509201828 | 93 | 243 | 4.0 | 7.0 | 0.00 | 0.53 | 0.01 | 51 | 1012.5 |
| 20260509201326 | 93 | 190 | 2.0 | 7.0 | 0.00 | 0.53 | 0.01 | 50 | 1012.4 |
| 20260509200824 | 93 | 237 | 2.0 | 7.0 | 0.00 | 0.53 | 0.01 | 51 | 1012.5 |
| 20260509200325 | 92 | 218 | 0.0 | 9.0 | 0.00 | 0.53 | 0.01 | 52 | 1012.5 |
| 20260509195823 | 92 | 271 | 2.0 | 9.0 | 0.00 | 0.53 | 0.01 | 54 | 1012.6 |
| 20260509195324 | 92 | 234 | 2.0 | 9.0 | 0.00 | 0.53 | 0.01 | 53 | 1012.7 |
| 20260509194854 | 92 | 281 | 2.0 | 9.0 | 0.00 | 0.53 | 0.01 | 53 | 1012.7 |
| 20260509194403 | 92 | 259 | 2.0 | 5.0 | 0.00 | 0.53 | 0.01 | 52 | 1012.8 |
| 20260509193845 | 92 | 257 | 1.0 | 6.0 | 0.00 | 0.53 | 0.01 | 54 | 1012.8 |
| 20260509193346 | 92 | 261 | 2.0 | 6.0 | 0.00 | 0.53 | 0.01 | 54 | 1012.9 |
| 20260509192846 | 92 | 229 | 1.0 | 4.0 | 0.00 | 0.53 | 0.01 | 54 | 1013.0 |
| 20260509192349 | 92 | 294 | 1.0 | 9.0 | 0.00 | 0.53 | 0.01 | 54 | 1013.0 |
| 20260509191827 | 92 | 259 | 3.0 | 9.0 | 0.00 | 0.53 | 0.01 | 54 | 1013.2 |
| 20260509191330 | 92 | 300 | 2.0 | 7.0 | 0.00 | 0.53 | 0.01 | 54 | 1013.2 |
| 20260509190829 | 92 | 247 | 1.0 | 13.0 | 0.00 | 0.53 | 0.01 | 53 | 1013.3 |
| 20260509190330 | 92 | 242 | 4.0 | 13.0 | 0.00 | 0.53 | 0.01 | 52 | 1013.5 |
| 20260509185829 | 92 | 269 | 2.0 | 11.0 | 0.00 | 0.53 | 0.01 | 51 | 1013.4 |
| 20260509185330 | 93 | 27 | 4.0 | 11.0 | 0.00 | 0.53 | 0.01 | 52 | 1013.4 |
| 20260509184830 | 93 | 306 | 3.0 | 11.0 | 0.00 | 0.53 | 0.01 | 51 | 1013.5 |
| 20260509184330 | 94 | 250 | 5.0 | 11.0 | 0.00 | 0.53 | 0.01 | 50 | 1013.7 |
| 20260509183832 | 94 | 263 | 5.0 | 8.0 | 0.00 | 0.53 | 0.01 | 51 | 1013.7 |
| 20260509183333 | 94 | 273 | 3.0 | 9.0 | 0.00 | 0.53 | 0.01 | 51 | 1013.8 |
| 20260509182832 | 94 | 194 | 3.0 | 9.0 | 0.00 | 0.53 | 0.01 | 51 | 1013.9 |
| 20260509182329 | 93 | 342 | 4.0 | 8.0 | 0.00 | 0.53 | 0.01 | 52 | 1013.9 |
| 20260509181828 | 93 | 270 | 4.0 | 10.0 | 0.00 | 0.53 | 0.01 | 53 | 1014.0 |
| 20260509181329 | 92 | 257 | 4.0 | 12.0 | 0.00 | 0.53 | 0.01 | 53 | 1014.1 |
| 20260509180830 | 92 | 268 | 7.0 | 14.0 | 0.00 | 0.53 | 0.01 | 53 | 1014.1 |
| 20260509180332 | 93 | 170 | 5.0 | 14.0 | 0.00 | 0.53 | 0.01 | 53 | 1014.2 |
| 20260509175830 | 93 | 202 | 5.0 | 11.0 | 0.00 | 0.53 | 0.01 | 54 | 1014.3 |
| 20260509175330 | 93 | 194 | 2.0 | 10.0 | 0.00 | 0.53 | 0.01 | 54 | 1014.3 |
| 20260509174831 | 93 | 256 | 6.0 | 10.0 | 0.00 | 0.53 | 0.01 | 53 | 1014.3 |
| 20260509174359 | 92 | 141 | 4.0 | 10.0 | 0.00 | 0.53 | 0.01 | 56 | 1014.3 |
| 20260509173840 | 91 | 257 | 6.0 | 10.0 | 0.00 | 0.53 | 0.01 | 55 | 1014.4 |
| 20260509173340 | 92 | 275 | 3.0 | 7.0 | 0.00 | 0.53 | 0.01 | 56 | 1014.4 |
| 20260509172837 | 91 | 233 | 2.0 | 11.0 | 0.00 | 0.53 | 0.01 | 55 | 1014.4 |
| 20260509172334 | 91 | 249 | 4.0 | 8.0 | 0.00 | 0.53 | 0.01 | 57 | 1014.4 |
| 20260509171834 | 91 | 239 | 4.0 | 9.0 | 0.00 | 0.53 | 0.01 | 55 | 1014.5 |
| 20260509171333 | 91 | 223 | 4.0 | 9.0 | 0.00 | 0.53 | 0.01 | 56 | 1014.4 |
| 20260509170832 | 91 | 263 | 2.0 | 8.0 | 0.00 | 0.53 | 0.01 | 57 | 1014.4 |
| 20260509170335 | 91 | 291 | 4.0 | 9.0 | 0.00 | 0.53 | 0.01 | 56 | 1014.4 |
| 20260509165835 | 91 | 252 | 5.0 | 9.0 | 0.00 | 0.53 | 0.01 | 57 | 1014.5 |
| 20260509165337 | 90 | 248 | 3.0 | 10.0 | 0.00 | 0.53 | 0.01 | 59 | 1014.6 |
| 20260509164907 | 90 | 188 | 3.0 | 10.0 | 0.00 | 0.53 | 0.01 | 58 | 1014.6 |
| 20260509164346 | 90 | 259 | 3.0 | 10.0 | 0.00 | 0.53 | 0.01 | 60 | 1014.6 |
| 20260509163845 | 90 | 257 | 3.0 | 10.0 | 0.00 | 0.53 | 0.01 | 59 | 1014.7 |
| 20260509163344 | 89 | 254 | 2.0 | 8.0 | 0.00 | 0.53 | 0.01 | 60 | 1014.7 |
| 20260509162846 | 89 | 252 | 3.0 | 8.0 | 0.00 | 0.53 | 0.01 | 61 | 1014.7 |
| 20260509162342 | 89 | 232 | 1.0 | 5.0 | 0.00 | 0.53 | 0.01 | 61 | 1014.7 |
| 20260509161844 | 88 | 244 | 1.0 | 10.0 | 0.00 | 0.53 | 0.01 | 60 | 1014.8 |
| 20260509161346 | 88 | 246 | 4.0 | 10.0 | 0.00 | 0.53 | 0.01 | 59 | 1014.9 |
| 20260509160826 | 88 | 196 | 2.0 | 10.0 | 0.00 | 0.53 | 0.01 | 62 | 1014.9 |
| 20260509160326 | 88 | 261 | 3.0 | 10.0 | 0.00 | 0.53 | 0.01 | 62 | 1014.8 |
| 20260509155826 | 87 | 123 | 1.0 | 8.0 | 0.00 | 0.53 | 0.01 | 63 | 1015.0 |
| 20260509155325 | 87 | 260 | 2.0 | 10.0 | 0.00 | 0.53 | 0.01 | 65 | 1015.0 |
| 20260509154826 | 86 | 235 | 3.0 | 10.0 | 0.00 | 0.53 | 0.01 | 67 | 1015.1 |
| 20260509154355 | 86 | 268 | 2.0 | 10.0 | 0.00 | 0.53 | 0.01 | 69 | 1015.1 |
| 20260509153902 | 86 | 257 | 3.0 | 9.0 | 0.00 | 0.53 | 0.01 | 68 | 1015.2 |
| 20260509153406 | 85 | 243 | 2.0 | 9.0 | 0.00 | 0.53 | 0.01 | 69 | 1015.2 |
| 20260509152845 | 85 | 285 | 2.0 | 9.0 | 0.00 | 0.53 | 0.01 | 71 | 1015.3 |
| 20260509152342 | 85 | 300 | 2.0 | 7.0 | 0.00 | 0.53 | 0.01 | 71 | 1015.4 |
| 20260509151842 | 84 | 242 | 0.0 | 8.0 | 0.00 | 0.53 | 0.01 | 68 | 1015.4 |
| 20260509151342 | 84 | 267 | 2.0 | 8.0 | 0.00 | 0.53 | 0.01 | 69 | 1015.4 |
| 20260509150839 | 84 | 297 | 1.0 | 6.0 | 0.00 | 0.53 | 0.01 | 71 | 1015.6 |
| 20260509150408 | 84 | 207 | 1.0 | 8.0 | 0.00 | 0.53 | 0.01 | 70 | 1015.7 |
| 20260509145847 | 84 | 255 | 1.0 | 8.0 | 0.00 | 0.53 | 0.01 | 71 | 1015.6 |
| 20260509145325 | 84 | 239 | 1.0 | 4.0 | 0.00 | 0.53 | 0.01 | 72 | 1015.6 |
| 20260509144345 | 83 | 255 | 2.0 | 8.0 | 0.00 | 0.53 | 0.01 | 72 | 1015.6 |
| 20260509143842 | 82 | 210 | 0.0 | 6.0 | 0.00 | 0.53 | 0.01 | 76 | 1015.5 |
| 20260509143342 | 82 | 240 | 1.0 | 6.0 | 0.00 | 0.53 | 0.01 | 77 | 1015.5 |
| 20260509142844 | 81 | 251 | 0.0 | 3.0 | 0.00 | 0.53 | 0.01 | 78 | 1015.3 |
| 20260509142324 | 81 | 215 | 1.0 | 7.0 | 0.00 | 0.53 | 0.01 | 78 | 1015.3 |
| 20260509141824 | 80 | 209 | 0.0 | 7.0 | 0.00 | 0.53 | 0.01 | 80 | 1015.3 |
| 20260509141333 | 80 | 123 | 2.0 | 6.0 | 0.00 | 0.53 | 0.01 | 80 | 1015.3 |
| 20260509140832 | 80 | 119 | 1.0 | 5.0 | 0.00 | 0.53 | 0.01 | 84 | 1015.3 |
| 20260509140332 | 79 | 129 | 2.0 | 5.0 | 0.00 | 0.53 | 0.01 | 84 | 1015.3 |
| 20260509135840 | 79 | 147 | 1.0 | 4.0 | 0.00 | 0.53 | 0.01 | 85 | 1015.3 |
| 20260509135340 | 79 | 206 | 1.0 | 7.0 | 0.00 | 0.53 | 0.01 | 87 | 1015.3 |
| 20260509134839 | 78 | 152 | 1.0 | 7.0 | 0.00 | 0.53 | 0.01 | 87 | 1015.3 |
| 20260509134336 | 78 | 247 | 1.0 | 2.0 | 0.00 | 0.53 | 0.01 | 87 | 1015.4 |
| 20260509133830 | 77 | 150 | 0.0 | 2.0 | 0.00 | 0.53 | 0.01 | 88 | 1015.4 |
| 20260509133330 | 77 | 153 | 0.0 | 2.0 | 0.00 | 0.53 | 0.01 | 89 | 1015.5 |
| 20260509132901 | 77 | 153 | 0.0 | 2.0 | 0.00 | 0.53 | 0.01 | 90 | 1015.4 |
| 20260509132340 | 76 | 150 | 0.0 | 2.0 | 0.00 | 0.53 | 0.01 | 90 | 1015.5 |
| 20260509131838 | 76 | 170 | 0.0 | 3.0 | 0.00 | 0.53 | 0.01 | 91 | 1015.4 |
| 20260509131338 | 76 | 206 | 1.0 | 3.0 | 0.00 | 0.53 | 0.01 | 91 | 1015.4 |
| 20260509130839 | 76 | 140 | 0.0 | 3.0 | 0.00 | 0.53 | 0.01 | 92 | 1015.3 |
| 20260509130338 | 75 | 173 | 0.0 | 4.0 | 0.00 | 0.53 | 0.01 | 93 | 1015.4 |
| 20260509125836 | 75 | 130 | 2.0 | 4.0 | 0.00 | 0.53 | 0.01 | 94 | 1015.3 |
| 20260509125404 | 74 | 201 | 0.0 | 2.0 | 0.00 | 0.53 | 0.01 | 95 | 1015.5 |
| 20260509124844 | 74 | 194 | 0.0 | 2.0 | 0.00 | 0.53 | 0.01 | 95 | 1015.5 |
| 20260509124341 | 74 | 189 | 0.0 | 2.0 | 0.00 | 0.53 | 0.01 | 95 | 1015.5 |
| 20260509123843 | 74 | 158 | 0.0 | 1.0 | 0.00 | 0.53 | 0.01 | 95 | 1015.5 |
| 20260509123344 | 74 | 158 | 0.0 | 0.0 | 0.00 | 0.53 | 0.01 | 96 | 1015.5 |
| 20260509122847 | 74 | 144 | 0.0 | 1.0 | 0.00 | 0.53 | 0.01 | 96 | 1015.4 |
| 20260509122347 | 73 | 90 | 0.0 | 1.0 | 0.00 | 0.53 | 0.01 | 96 | 1015.4 |
| 20260509121828 | 73 | 5 | 0.0 | 0.0 | 0.00 | 0.53 | 0.01 | 96 | 1015.5 |
| 20260509121329 | 73 | 5 | 0.0 | 0.0 | 0.00 | 0.53 | 0.01 | 96 | 1015.4 |
| 20260509120859 | 73 | 5 | 0.0 | 0.0 | 0.00 | 0.53 | 0.01 | 97 | 1015.4 |
| 20260509120340 | 73 | 5 | 0.0 | 0.0 | 0.00 | 0.53 | 0.01 | 97 | 1015.4 |